Regional Weather Roundup
Issued by NWS

Home | Current Version | Previous Version | Text Only | Print | Product List | Glossary On
Versions: 1 2 3 4 5 6 7 8 9 10 11 12 13 14 15 16 17 18 19 20 21 22 23 24 25 26 27 28 29 30 31 32 33 34 35 36 37 38 39 40 41 42 43 44 45 46 47 48 49 50
000
ASUS45 KPSR 162010
RWRAZ

ARIZONA REGIONAL HOURLY WEATHER ROUNDUP
NATIONAL WEATHER SERVICE PHOENIX AZ
100 PM MST WED APR 16 2014

NOTE: FAIR INDICATES FEW OR NO CLOUDS BELOW 12,000 FEET WITH NO
SIGNIFICANT WEATHER AND/OR OBSTRUCTIONS TO VISIBILITY.

AZZ001>003-036-162100-
NORTHWEST ARIZONA

CITY           SKY/WX    TMP DP  RH WIND       PRES   REMARKS
BULLHEAD CITY  SUNNY     86  23  10 N6        29.73F
KINGMAN        SUNNY     80  11   7 SW12G21   29.83F
$$

AZZ004>008-015-016-018-162100-
NORTH CENTRAL ARIZONA

CITY           SKY/WX    TMP DP  RH WIND       PRES   REMARKS
GRAND CANYON   PTSUNNY   64  10  12 W6        29.97F
WILLIAMS       PTSUNNY   64   7  10 W14G21    30.04F
PRESCOTT       SUNNY     73  10   9 S13G23    29.90F
FLAGSTAFF      PTSUNNY   62   9  12 W13G18    29.98S
PAYSON         MOSUNNY   72   9   8 W12G20    29.93F
PAGE           CLOUDY    66  19  16 N14       29.92R
$$

AZZ009>014-017-162100-
NORTHEAST ARIZONA

CITY           SKY/WX    TMP DP  RH WIND       PRES   REMARKS
WINSLOW        MOSUNNY   73  11   9 VRB3      29.88F
SAINT JOHNS    SUNNY     68   2   7 NW5       29.89F
WINDOW ROCK    PTSUNNY   66   5   9 VRB5G18   29.92F
SHOW LOW       SUNNY     66   9  10 W13G18    29.95F
$$

AZZ023-162100-
GREATER PHOENIX AREA

CITY           SKY/WX    TMP DP  RH WIND       PRES   REMARKS
PHOENIX        MOSUNNY   88  11   5 VRB3      29.73F
BUCKEYE          N/A     84  23  10 SE6       29.76S
GLENDALE       MOSUNNY   86  12   6 SE5         N/A
LUKE AFB       NOT AVBL
DEER VALLEY    SUNNY     84   7   5 VRB5      29.75F
SCOTTSDALE     SUNNY     86  15   7 VRB5      29.77F
MESA-GATEWAY   MOSUNNY   84  16   8 SW5       29.78F
CHANDLER       MOSUNNY   86  18   8 S7        29.76F
$$

AZZ027-028-162100-
SOUTHWEST MARICOPA COUNTY AND PINAL COUNTY

CITY           SKY/WX    TMP DP  RH WIND       PRES   REMARKS
CASA GRANDE    SUNNY     86  23  10 CALM      29.78S
GILA BEND      PTCLDY    90  23   9 NW6       29.75F
$$

AZZ503-504-507>509-162100-
SOUTHEAST ARIZONA

CITY           SKY/WX    TMP DP  RH WIND       PRES   REMARKS
TUCSON         SUNNY     84  -1   4 CALM      29.83F
DAVIS-MONTHAN  SUNNY     82   9   6 W6        29.81F
RYAN FIELD       N/A     84  10   6 W7        29.82F
NOGALES        SUNNY     82   3   5 SW10G17   29.87F
SIERRA VISTA   SUNNY     79  -2   4 W21G32    29.90F
DOUGLAS        SUNNY     82  -7   3 W17       29.87F
SAFFORD        SUNNY     82   3   5 MISG      29.79F
$$

AZZ020-021-025-026-031-162100-
SOUTHWEST ARIZONA

CITY           SKY/WX    TMP DP  RH WIND       PRES   REMARKS
YUMA           SUNNY     88  32  13 SW7       29.73F
$$

CAZ031-033-041-043-047-048-061-162100-
SOUTHERN CALIFORNIA

CITY           SKY/WX    TMP DP  RH WIND       PRES   REMARKS
DOWNTOWN L.A.  SUNNY     71  53  52 VRB3      29.82F
L.A. AIRPORT   MOSUNNY   65  52  62 W13       29.84F
SAN DIEGO      MOSUNNY   65  51  60 S9        29.87S
BURBANK        SUNNY     71  48  43 SW7       29.81F
ONTARIO        MOSUNNY   73  42  32 VRB6      29.82F
RIVERSIDE      SUNNY     75  41  29 VRB6      29.82F
PALM SPRINGS   SUNNY     91  24   9 VRB5      29.72F
EL CENTRO NAS  SUNNY     91  29  11 SE7       29.70F
IMPERIAL       SUNNY     91  31  11 VRB6      29.69F
BLYTHE         SUNNY     90  29  11 VRB3      29.72F
NEEDLES        SUNNY     90  22   8 VRB3      29.72F
$$

NVZ020-UTZ003-162100-
SOUTHERN NEVADA-UTAH

CITY           SKY/WX    TMP DP  RH WIND       PRES   REMARKS
LAS VEGAS      MOSUNNY   80  13   8 S7        29.76F
SALT LAKE CITY MOSUNNY   55  17  22 VRB3      30.01F
$$

NMZ009-TXZ055-162100-
NEW MEXICO-WEST TEXAS

CITY           SKY/WX    TMP DP  RH WIND       PRES   REMARKS
ALBUQUERQUE    PTSUNNY   70   6   8 VRB5      29.85F
EL PASO        MOSUNNY   81   8   6 N6        29.82F
$$


........................KEY........................
SKY/WX - SKY CONDITION/WEATHER
TMP    - TEMPERATURE IN FAHRENHEIT
DP     - DEW POINT IN FAHRENHEIT
RH     - RELATIVE HUMIDITY IN PERCENT
WIND   - DIRECTION AND SPEED IN MILES PER HOUR (MPH)
VRB    - VARIABLE WIND DIRECTION
PRES   - MEAN SEA LEVEL PRESSURE IN INCHES OF MERCURY
         F - FALLING PRESSURE   R - RISING PRESSURE
         S - STEADY PRESSURE
VSB    - VISIBILITY IN MILES
HX     - HEAT INDEX IN FAHRENHEIT
WCI    - WIND CHILL INDEX IN FAHRENHEIT
TC     - TEMPERATURE IN CELSIUS WHICH IS ALSO KNOWN AS
         TEMPERATURE IN CENTIGRADE
AFB    - AIR FORCE BASE
         LUKE AFB IS LUKE AIR FORCE BASE
         DAVIS-MONTHAN IS DAVIS-MONTHAN AIR FORCE BASE
NAS    - NAVAL AIR STATION
         EL CENTRO NAS IS EL CENTRO NAVAL AIR STATION
N/A    - NOT AVAILABLE



USA.gov is the U.S. government's official web portal to all federal, state and local government web resources and services.